,,Stat1,,Stat2,,Stat3,,Stat4,,Wind1,,Wind1,
time,status,PR1M_SUM,status,RH1M_AVG,status,SR1M_AVG,status,TA1M_AVG,status,W1dAve1m,status,W1sAve1m,
2000-03-02, 00:01:00,VALID,0,VALID,97.4583,VALID,-0.0169808,VALID,17.4247,VALID,201,VALID,1.30807,
2000-03-02, 00:02:00,VALID,0,VALID,97.1226,VALID,-0.0339617,VALID,17.4733,VALID,205,VALID,0.920072,
2000-03-02, 00:03:00,VALID,0,VALID,96.5847,VALID,-0.0169808,VALID,17.5181,VALID,202,VALID,1.11842,
2000-03-02, 00:04:00,VALID,0,VALID,95.7277,VALID,-0.0169808,VALID,17.5727,VALID,190,VALID,1.2455,
2000-03-02, 00:05:00,VALID,0,VALID,94.8426,VALID,0,VALID,17.6864,VALID,190,VALID,1.25144,
2000-03-02, 00:06:00,VALID,0,VALID,93.9105,VALID,0.0339617,VALID,17.724,VALID,194,VALID,1.16004,
2000-03-02, 00:07:00,VALID,0,VALID,92.9746,VALID,0.0509425,VALID,17.7296,VALID,189,VALID,1.01601,
2000-03-02, 00:08:00,VALID,0,VALID,93.4617,VALID,0.0849042,VALID,17.7333,VALID,188,VALID,1.13477,
2000-03-02, 00:09:00,VALID,0,VALID,93.3599,VALID,0.0509425,VALID,17.7559,VALID,178,VALID,1.1166,
2000-03-02, 00:10:00,VALID,0,VALID,93.0598,VALID,0.0679233,VALID,17.7785,VALID,181,VALID,1.12642,
2000-03-02, 00:11:00,VALID,0,VALID,93.0115,VALID,0.0679233,VALID,17.7946,VALID,192,VALID,1.20236,
2000-03-02, 00:12:00,VALID,0,VALID,92.6199,VALID,0.0679233,VALID,17.8204,VALID,193,VALID,1.05859,
2000-03-02, 00:13:00,VALID,0,VALID,92.7267,VALID,0.0679233,VALID,17.8329,VALID,191,VALID,1.14395,
2000-03-02, 00:14:00,VALID,0,VALID,92.199,VALID,0.0509425,VALID,17.8232,VALID,195,VALID,1.01657,
2000-03-02, 00:15:00,VALID,0,VALID,92.6885,VALID,0.101885,VALID,17.8269,VALID,188,VALID,1.37862,
2000-03-02, 00:16:00,VALID,0,VALID,91.965,VALID,0.0849042,VALID,17.8753,VALID,184,VALID,1.50369,
2000-03-02, 00:17:00,VALID,0,VALID,91.1702,VALID,0.0679233,VALID,17.9205,VALID,187,VALID,1.4084,
2000-03-02, 00:18:00,VALID,0,VALID,91.1626,VALID,0.0679233,VALID,17.9595,VALID,182,VALID,1.17069,
2000-03-02, 00:19:00,VALID,0,VALID,91.0977,VALID,0.0679233,VALID,17.9334,VALID,176,VALID,0.949886,
2000-03-02, 00:20:00,VALID,0,VALID,91.3177,VALID,0.0679233,VALID,17.8267,VALID,173,VALID,1.05903,
2000-03-02, 00:21:00,VALID,0,VALID,91.3673,VALID,0.0339617,VALID,17.6922,VALID,171,VALID,1.07422,
2000-03-02, 00:22:00,VALID,0,VALID,92.3579,VALID,-0.0679233,VALID,17.5566,VALID,180,VALID,1.19413,
2000-03-02, 00:23:00,VALID,0,VALID,92.5041,VALID,-0.0509425,VALID,17.5181,VALID,183,VALID,1.31784,
2000-03-02, 00:24:00,VALID,0,VALID,92.1608,VALID,-0.0169808,VALID,17.5377,VALID,182,VALID,1.2806,
2000-03-02, 00:25:00,VALID,0,VALID,91.8111,VALID,-0.0509425,VALID,17.554,VALID,183,VALID,1.25332,
2000-03-02, 00:26:00,VALID,0,VALID,91.7145,VALID,-0.0849042,VALID,17.5476,VALID,188,VALID,1.36529,
2000-03-02, 00:27:00,VALID,0,VALID,91.7094,VALID,-0.0679233,VALID,17.5476,VALID,185,VALID,1.44074,
2000-03-02, 00:28:00,VALID,0,VALID,91.7094,VALID,-0.0679233,VALID,17.5572,VALID,184,VALID,1.28516,
2000-03-02, 00:29:00,VALID,0,VALID,91.6331,VALID,-0.0339617,VALID,17.5572,VALID,185,VALID,1.34805,
2000-03-02, 00:30:00,VALID,0,VALID,91.2351,VALID,-0.0849042,VALID,17.5736,VALID,191,VALID,1.48485,
2000-03-02, 00:31:00,VALID,0,VALID,90.9858,VALID,-0.0679233,VALID,17.5633,VALID,193,VALID,1.20808,
2000-03-02, 00:32:00,VALID,0,VALID,90.9096,VALID,-0.0849042,VALID,17.525,VALID,196,VALID,1.2895,
2000-03-02, 00:33:00,VALID,0,VALID,91.3559,VALID,-0.0849042,VALID,17.4798,VALID,190,VALID,1.22871,
2000-03-02, 00:34:00,VALID,0,VALID,91.3762,VALID,-0.0679233,VALID,17.4313,VALID,187,VALID,1.02888,
2000-03-02, 00:35:00,VALID,0,VALID,91.4652,VALID,-0.0339617,VALID,17.3926,VALID,196,VALID,0.963224,
2000-03-02, 00:36:00,VALID,0,VALID,91.8187,VALID,-0.0509425,VALID,17.331,VALID,202,VALID,1.02235,
2000-03-02, 00:37:00,VALID,0,VALID,92.0209,VALID,-0.0509425,VALID,17.2927,VALID,190,VALID,0.825391,
2000-03-02, 00:38:00,VALID,0,VALID,91.8861,VALID,-0.0169808,VALID,17.2247,VALID,184,VALID,0.891098,
2000-03-02, 00:39:00,VALID,0,VALID,91.5695,VALID,-0.0169808,VALID,17.1343,VALID,175,VALID,0.812881,
2000-03-02, 00:40:00,VALID,0,VALID,92.7089,VALID,-0.0339617,VALID,17.0435,VALID,182,VALID,1.06988,
2000-03-02, 00:41:00,VALID,0,VALID,93.2544,VALID,-0.0169808,VALID,17.031,VALID,191,VALID,1.25937,
2000-03-02, 00:42:00,VALID,0,VALID,93.0128,VALID,-0.0509425,VALID,17.0635,VALID,196,VALID,1.40696,
2000-03-02, 00:43:00,VALID,0,VALID,92.2562,VALID,-0.0339617,VALID,17.144,VALID,197,VALID,1.21932,
2000-03-02, 00:44:00,VALID,0,VALID,91.7552,VALID,-0.0509425,VALID,17.2282,VALID,197,VALID,1.32096,
2000-03-02, 00:45:00,VALID,0,VALID,91.5199,VALID,-0.0339617,VALID,17.2605,VALID,197,VALID,1.3707,
2000-03-02, 00:46:00,VALID,0,VALID,91.2173,VALID,-0.101885,VALID,17.3056,VALID,189,VALID,1.5651,
2000-03-02, 00:47:00,VALID,0,VALID,91.0571,VALID,-0.0339617,VALID,17.3513,VALID,186,VALID,1.46456,
2000-03-02, 00:48:00,VALID,0,VALID,90.715,VALID,-0.0679233,VALID,17.3734,VALID,192,VALID,1.48307,
2000-03-02, 00:49:00,VALID,0,VALID,90.2076,VALID,-0.0339617,VALID,17.37,VALID,191,VALID,1.42344,
2000-03-02, 00:50:00,VALID,0,VALID,89.8757,VALID,-0.0679233,VALID,17.3864,VALID,197,VALID,1.57102,
2000-03-02, 00:51:00,VALID,0,VALID,89.7473,VALID,-0.0169808,VALID,17.4085,VALID,196,VALID,1.60156,
2000-03-02, 00:52:00,VALID,0,VALID,90.1034,VALID,-0.0169808,VALID,17.3958,VALID,190,VALID,1.61372,
2000-03-02, 00:53:00,VALID,0,VALID,90.2636,VALID,-0.0509425,VALID,17.3769,VALID,190,VALID,1.4252,
2000-03-02, 00:54:00,VALID,0,VALID,90.4085,VALID,-0.0849042,VALID,17.3252,VALID,193,VALID,1.45739,
2000-03-02, 00:55:00,VALID,0,VALID,91.038,VALID,-0.0679233,VALID,17.2701,VALID,195,VALID,1.58098,
2000-03-02, 00:56:00,VALID,0,VALID,90.7264,VALID,-0.0679233,VALID,17.2348,VALID,194,VALID,1.81532,
2000-03-02, 00:57:00,VALID,0,VALID,90.2305,VALID,-0.0849042,VALID,17.2314,VALID,200,VALID,1.22578,
2000-03-02, 00:58:00,VALID,0,VALID,89.465,VALID,-0.0339617,VALID,17.2411,VALID,202,VALID,1.56416,
2000-03-02, 00:59:00,VALID,0,VALID,88.5584,VALID,-0.0509425,VALID,17.2411,VALID,197,VALID,1.85614,
2000-03-02, 01:00:00,VALID,0,VALID,87.6631,VALID,-0.0679233,VALID,17.2932,VALID,198,VALID,1.76259,
2000-03-02, 01:01:00,VALID,0,VALID,86.9294,VALID,-0.0849042,VALID,17.3803,VALID,196,VALID,1.89883,
2000-03-02, 01:02:00,VALID,0,VALID,86.6255,VALID,-0.0679233,VALID,17.4124,VALID,202,VALID,1.58641,
2000-03-02, 01:03:00,VALID,0,VALID,86.3203,VALID,-0.0849042,VALID,17.4057,VALID,199,VALID,1.78963,
2000-03-02, 01:04:00,VALID,0,VALID,86.52,VALID,-0.0339617,VALID,17.4445,VALID,198,VALID,1.64583,
2000-03-02, 01:05:00,VALID,0,VALID,86.8659,VALID,-0.0509425,VALID,17.4641,VALID,203,VALID,1.63379,
2000-03-02, 01:06:00,VALID,0,VALID,86.7705,VALID,-0.0339617,VALID,17.4666,VALID,196,VALID,1.7197,
2000-03-02, 01:07:00,VALID,0,VALID,86.5263,VALID,0,VALID,17.4922,VALID,195,VALID,1.81688,
2000-03-02, 01:08:00,VALID,0,VALID,85.9643,VALID,-0.0169808,VALID,17.5282,VALID,189,VALID,1.67079,
2000-03-02, 01:09:00,VALID,0,VALID,84.4371,VALID,0.0169808,VALID,17.5568,VALID,186,VALID,1.88047,
2000-03-02, 01:10:00,VALID,0,VALID,83.0714,VALID,0.0169808,VALID,17.5861,VALID,190,VALID,1.98603,
2000-03-02, 01:11:00,VALID,0,VALID,81.9893,VALID,0,VALID,17.6089,VALID,191,VALID,1.81345,
2000-03-02, 01:12:00,VALID,0,VALID,81.37,VALID,-0.0169808,VALID,17.6476,VALID,185,VALID,1.92122,
2000-03-02, 01:13:00,VALID,0,VALID,81.2174,VALID,0.0169808,VALID,17.664,VALID,194,VALID,1.75391,
2000-03-02, 01:14:00,VALID,0,VALID,81.2339,VALID,0,VALID,17.6603,VALID,189,VALID,1.58215,
2000-03-02, 01:15:00,VALID,0,VALID,81.0673,VALID,0,VALID,17.6539,VALID,185,VALID,1.7197,
2000-03-02, 01:16:00,VALID,0,VALID,81.1462,VALID,-0.0169808,VALID,17.6597,VALID,183,VALID,1.38672,
2000-03-02, 01:17:00,VALID,0,VALID,81.4653,VALID,0,VALID,17.6862,VALID,190,VALID,1.3877,
2000-03-02, 01:18:00,VALID,0,VALID,82.124,VALID,0.0339617,VALID,17.6564,VALID,183,VALID,1.44366,
2000-03-02, 01:19:00,VALID,0,VALID,82.6696,VALID,0,VALID,17.6276,VALID,191,VALID,1.30564,
2000-03-02, 01:20:00,VALID,0,VALID,82.8005,VALID,0.0169808,VALID,17.5598,VALID,192,VALID,1.48893,
2000-03-02, 01:21:00,VALID,0,VALID,82.3784,VALID,0.0169808,VALID,17.5377,VALID,191,VALID,1.53125,
2000-03-02, 01:22:00,VALID,0,VALID,82.3021,VALID,0,VALID,17.5374,VALID,196,VALID,1.40507,
2000-03-02, 01:23:00,VALID,0,VALID,81.9015,VALID,0,VALID,17.5215,VALID,195,VALID,1.6593,
2000-03-02, 01:24:00,VALID,0,VALID,81.6319,VALID,0,VALID,17.5151,VALID,193,VALID,1.61415,
2000-03-02, 01:25:00,VALID,0,VALID,81.0915,VALID,0.0169808,VALID,17.5635,VALID,186,VALID,1.87051,
2000-03-02, 01:26:00,VALID,0,VALID,80.2904,VALID,0,VALID,17.6177,VALID,190,VALID,1.65057,
2000-03-02, 01:27:00,VALID,0,VALID,80.649,VALID,0,VALID,17.6564,VALID,194,VALID,1.38072,
2000-03-02, 01:28:00,VALID,0,VALID,81.0381,VALID,0,VALID,17.6248,VALID,198,VALID,1.27409,
2000-03-02, 01:29:00,VALID,0,VALID,81.4971,VALID,0,VALID,17.5766,VALID,198,VALID,1.38301,
2000-03-02, 01:30:00,VALID,0,VALID,81.286,VALID,0,VALID,17.5637,VALID,194,VALID,1.92353,
2000-03-02, 01:31:00,VALID,0,VALID,80.6884,VALID,0.0169808,VALID,17.6343,VALID,190,VALID,1.93693,
2000-03-02, 01:32:00,VALID,0,VALID,80.2421,VALID,0,VALID,17.6857,VALID,189,VALID,1.68902,
2000-03-02, 01:33:00,VALID,0,VALID,79.5859,VALID,0,VALID,17.7249,VALID,184,VALID,1.81895,
2000-03-02, 01:34:00,VALID,0,VALID,79.6813,VALID,0,VALID,17.783,VALID,195,VALID,1.53267,
2000-03-02, 01:35:00,VALID,0,VALID,79.5033,VALID,-0.0169808,VALID,17.7798,VALID,194,VALID,1.82565,
2000-03-02, 01:36:00,VALID,0,VALID,79.6101,VALID,-0.0169808,VALID,17.7895,VALID,187,VALID,1.67296,
2000-03-02, 01:37:00,VALID,0,VALID,79.7245,VALID,0.0169808,VALID,17.7957,VALID,190,VALID,1.65195,
2000-03-02, 01:38:00,VALID,0,VALID,79.9496,VALID,0,VALID,17.825,VALID,183,VALID,1.57292,
2000-03-02, 01:39:00,VALID,0,VALID,80.1709,VALID,0,VALID,17.8315,VALID,176,VALID,1.43579,
2000-03-02, 01:40:00,VALID,0,VALID,80.7533,VALID,-0.0169808,VALID,17.8123,VALID,179,VALID,1.2372,
2000-03-02, 01:41:00,VALID,0,VALID,81.5658,VALID,0,VALID,17.7157,VALID,179,VALID,1.20508,
2000-03-02, 01:42:00,VALID,0,VALID,82.4597,VALID,0,VALID,17.5958,VALID,179,VALID,1.40791,
2000-03-02, 01:43:00,VALID,0,VALID,83.5063,VALID,0,VALID,17.4597,VALID,171,VALID,1.28106,
2000-03-02, 01:44:00,VALID,0,VALID,84.5083,VALID,0,VALID,17.3244,VALID,168,VALID,1.31662,
2000-03-02, 01:45:00,VALID,0,VALID,84.7283,VALID,0,VALID,17.2148,VALID,174,VALID,1.32617,
2000-03-02, 01:46:01,VALID,0,VALID,84.8911,VALID,0,VALID,17.2013,VALID,186,VALID,1.46046,
2000-03-02, 01:47:00,VALID,0,VALID,84.7944,VALID,0,VALID,17.2437,VALID,186,VALID,1.42664,
2000-03-02, 01:48:00,VALID,0,VALID,84.5592,VALID,0,VALID,17.3214,VALID,184,VALID,1.34592,
2000-03-02, 01:49:00,VALID,0,VALID,83.9577,VALID,0,VALID,17.3855,VALID,187,VALID,1.48359,
2000-03-02, 01:50:00,VALID,0,VALID,83.8382,VALID,0,VALID,17.4733,VALID,190,VALID,1.42661,
2000-03-02, 01:51:00,VALID,0,VALID,83.8458,VALID,0,VALID,17.4989,VALID,189,VALID,1.33861,
2000-03-02, 01:52:00,VALID,0,VALID,83.8394,VALID,0,VALID,17.4731,VALID,190,VALID,1.43121,
2000-03-02, 01:53:00,VALID,0,VALID,84.3849,VALID,0,VALID,17.441,VALID,180,VALID,1.29414,
2000-03-02, 01:54:00,VALID,0,VALID,84.7893,VALID,-0.0339617,VALID,17.3825,VALID,175,VALID,1.4446,
2000-03-02, 01:55:00,VALID,0,VALID,85.3514,VALID,0,VALID,17.344,VALID,171,VALID,1.39825,
2000-03-02, 01:56:00,VALID,0,VALID,86.272,VALID,0,VALID,17.2084,VALID,167,VALID,1.41558,
2000-03-02, 01:57:01,VALID,0,VALID,87.2931,VALID,0,VALID,17.0472,VALID,174,VALID,1.30527,
2000-03-02, 01:58:00,VALID,0,VALID,87.2677,VALID,0,VALID,17.0175,VALID,182,VALID,1.39583,
2000-03-02, 01:59:00,VALID,0,VALID,86.8951,VALID,0,VALID,17.0564,VALID,180,VALID,1.46932,
2000-03-02, 02:00:00,VALID,0,VALID,86.0024,VALID,0,VALID,17.1309,VALID,180,VALID,1.50803,
2000-03-02, 02:01:00,VALID,0,VALID,85.5396,VALID,0.0169808,VALID,17.2116,VALID,178,VALID,1.35742,
2000-03-02, 02:02:00,VALID,0,VALID,85.2115,VALID,-0.0169808,VALID,17.2505,VALID,175,VALID,1.12216,
2000-03-02, 02:03:00,VALID,0,VALID,85.0716,VALID,0,VALID,17.2312,VALID,172,VALID,1.08861,
2000-03-02, 02:04:00,VALID,0,VALID,85.2624,VALID,-0.0169808,VALID,17.1632,VALID,167,VALID,1.06467,
2000-03-02, 02:05:00,VALID,0,VALID,85.8053,VALID,0,VALID,17.0663,VALID,167,VALID,1.0416,
2000-03-02, 02:06:00,VALID,0,VALID,85.9897,VALID,-0.0169808,VALID,16.9697,VALID,174,VALID,0.791903,
2000-03-02, 02:07:00,VALID,0,VALID,86.3394,VALID,-0.0679233,VALID,16.8503,VALID,176,VALID,0.61109,
2000-03-02, 02:08:01,VALID,0,VALID,87.2639,VALID,-0.0679233,VALID,16.6958,VALID,171,VALID,0.616102,
2000-03-02, 02:09:00,VALID,0,VALID,88.7682,VALID,-0.0339617,VALID,16.5114,VALID,170,VALID,0.802734,
2000-03-02, 02:10:00,VALID,0,VALID,89.2514,VALID,-0.0849042,VALID,16.3792,VALID,172,VALID,0.75142,
2000-03-02, 02:11:00,VALID,0,VALID,89.6939,VALID,-0.101885,VALID,16.2633,VALID,170,VALID,0.752287,
2000-03-02, 02:12:00,VALID,0,VALID,90.1097,VALID,-0.0679233,VALID,16.1699,VALID,172,VALID,0.830946,
2000-03-02, 02:13:00,VALID,0,VALID,90.0016,VALID,-0.0509425,VALID,16.1404,VALID,178,VALID,0.820313,
2000-03-02, 02:14:00,VALID,0,VALID,89.6189,VALID,-0.0849042,VALID,16.1793,VALID,179,VALID,0.680871,
2000-03-02, 02:15:00,VALID,0,VALID,89.802,VALID,-0.101885,VALID,16.1473,VALID,180,VALID,0.698742,
2000-03-02, 02:16:00,VALID,0,VALID,90.2076,VALID,-0.101885,VALID,16.0702,VALID,179,VALID,0.788628,
2000-03-02, 02:17:00,VALID,0,VALID,90.2992,VALID,-0.118866,VALID,15.9244,VALID,163,VALID,0.972266,
2000-03-02, 02:18:00,VALID,0,VALID,90.7455,VALID,-0.101885,VALID,15.8405,VALID,162,VALID,1.02865,
2000-03-02, 02:19:01,VALID,0,VALID,89.1077,VALID,-0.101885,VALID,15.9444,VALID,168,VALID,0.911966,
2000-03-02, 02:20:00,VALID,0,VALID,88.2684,VALID,-0.0849042,VALID,16.1378,VALID,179,VALID,0.926215,
2000-03-02, 02:21:00,VALID,0,VALID,87.6174,VALID,-0.0849042,VALID,16.2802,VALID,187,VALID,1.0793,
2000-03-02, 02:22:00,VALID,0,VALID,87.2778,VALID,-0.101885,VALID,16.3514,VALID,186,VALID,1.13234,
2000-03-02, 02:23:00,VALID,0,VALID,87.185,VALID,-0.101885,VALID,16.3349,VALID,189,VALID,1.133,
2000-03-02, 02:24:00,VALID,0,VALID,86.2657,VALID,-0.0849042,VALID,16.3512,VALID,183,VALID,1.18576,
2000-03-02, 02:25:00,VALID,0,VALID,86.0177,VALID,-0.0849042,VALID,16.422,VALID,168,VALID,0.843359,
2000-03-02, 02:26:00,VALID,0,VALID,87.1685,VALID,-0.101885,VALID,16.3187,VALID,162,VALID,0.724432,
2000-03-02, 02:27:00,VALID,0,VALID,87.7801,VALID,-0.118866,VALID,16.1644,VALID,154,VALID,0.801639,
2000-03-02, 02:28:00,VALID,0,VALID,88.9793,VALID,-0.118866,VALID,15.9448,VALID,152,VALID,0.644748,
2000-03-02, 02:29:00,VALID,0,VALID,90.5344,VALID,-0.0849042,VALID,15.7281,VALID,155,VALID,0.871094,
2000-03-02, 02:30:01,VALID,0,VALID,91.2656,VALID,-0.0849042,VALID,15.6152,VALID,173,VALID,1.07741,
2000-03-02, 02:31:00,VALID,0,VALID,90.64,VALID,-0.101885,VALID,15.6959,VALID,176,VALID,1.10061,
2000-03-02, 02:32:00,VALID,0,VALID,89.643,VALID,-0.101885,VALID,15.8639,VALID,183,VALID,0.951389,
2000-03-02, 02:33:00,VALID,0,VALID,88.8063,VALID,-0.101885,VALID,16.0351,VALID,173,VALID,0.9875,
2000-03-02, 02:34:00,VALID,0,VALID,88.1642,VALID,-0.0849042,VALID,16.1711,VALID,170,VALID,1.02936,
2000-03-02, 02:35:00,VALID,0,VALID,87.0769,VALID,-0.101885,VALID,16.3097,VALID,175,VALID,1.18331,
2000-03-02, 02:36:00,VALID,0,VALID,86.3801,VALID,-0.101885,VALID,16.4932,VALID,186,VALID,1.14714,
2000-03-02, 02:37:00,VALID,0,VALID,86.2135,VALID,-0.101885,VALID,16.5838,VALID,188,VALID,1.22285,
2000-03-02, 02:38:00,VALID,0,VALID,86.314,VALID,-0.118866,VALID,16.5739,VALID,190,VALID,1.23082,
2000-03-02, 02:39:00,VALID,0,VALID,86.3521,VALID,-0.0849042,VALID,16.5352,VALID,191,VALID,1.3245,
2000-03-02, 02:40:00,VALID,0,VALID,86.0482,VALID,-0.118866,VALID,16.5614,VALID,195,VALID,1.34049,
2000-03-02, 02:41:01,VALID,0,VALID,85.8473,VALID,-0.0849042,VALID,16.5836,VALID,201,VALID,1.15,
2000-03-02, 02:42:00,VALID,0,VALID,85.8549,VALID,-0.101885,VALID,16.5642,VALID,198,VALID,1.57955,
2000-03-02, 02:43:00,VALID,0,VALID,85.7519,VALID,-0.101885,VALID,16.555,VALID,197,VALID,1.51391,
2000-03-02, 02:44:00,VALID,0,VALID,85.8664,VALID,-0.101885,VALID,16.5292,VALID,186,VALID,1.11632,
2000-03-02, 02:45:00,VALID,0,VALID,86.0457,VALID,-0.101885,VALID,16.4515,VALID,192,VALID,1.29961,
2000-03-02, 02:46:00,VALID,0,VALID,85.9503,VALID,-0.101885,VALID,16.4257,VALID,210,VALID,1.15554,
2000-03-02, 02:47:00,VALID,0,VALID,86.0075,VALID,-0.101885,VALID,16.3996,VALID,201,VALID,1.13586,
2000-03-02, 02:48:00,VALID,0,VALID,86.094,VALID,-0.0849042,VALID,16.3871,VALID,193,VALID,0.873915,
2000-03-02, 02:49:00,VALID,0,VALID,86.2847,VALID,-0.101885,VALID,16.3028,VALID,194,VALID,0.961914,
2000-03-02, 02:50:00,VALID,0,VALID,86.4144,VALID,-0.0679233,VALID,16.235,VALID,196,VALID,1.05256,
2000-03-02, 02:51:00,VALID,0,VALID,86.623,VALID,-0.101885,VALID,16.1677,VALID,186,VALID,1.09699,
2000-03-02, 02:52:00,VALID,0,VALID,87.0045,VALID,0.0169808,VALID,16.1144,VALID,177,VALID,0.943359,
2000-03-02, 02:53:00,VALID,0,VALID,86.9727,VALID,0,VALID,16.0436,VALID,175,VALID,1.06309,
2000-03-02, 02:54:00,VALID,0,VALID,86.5937,VALID,-0.0339617,VALID,16.0315,VALID,186,VALID,1.10866,
2000-03-02, 02:55:00,VALID,0,VALID,86.0228,VALID,0,VALID,16.0311,VALID,194,VALID,1.08537,
2000-03-02, 02:56:00,VALID,0,VALID,85.6833,VALID,0,VALID,16.0246,VALID,194,VALID,1.07704,
2000-03-02, 02:57:00,VALID,0,VALID,85.7799,VALID,0,VALID,16.0148,VALID,198,VALID,0.849805,
2000-03-02, 02:58:00,VALID,0,VALID,86.0469,VALID,0,VALID,15.9893,VALID,198,VALID,0.930398,
2000-03-02, 02:59:00,VALID,0,VALID,85.7189,VALID,0,VALID,15.9373,VALID,199,VALID,1.22351,
2000-03-02, 03:00:00,VALID,0,VALID,85.6909,VALID,-0.0169808,VALID,15.9669,VALID,188,VALID,1.09093,
2000-03-02, 03:01:00,VALID,0,VALID,85.3387,VALID,0,VALID,15.9795,VALID,183,VALID,0.991992,
2000-03-02, 03:02:00,VALID,0,VALID,85.5853,VALID,-0.0169808,VALID,16.0117,VALID,180,VALID,0.84233,
2000-03-02, 03:03:00,VALID,0,VALID,85.5332,VALID,0,VALID,15.9926,VALID,173,VALID,0.936928,
2000-03-02, 03:04:00,VALID,0,VALID,84.9648,VALID,-0.0169808,VALID,15.9924,VALID,186,VALID,1.03342,
2000-03-02, 03:05:00,VALID,0,VALID,85.0703,VALID,-0.0339617,VALID,16.0412,VALID,187,VALID,1.02051,
2000-03-02, 03:06:00,VALID,0,VALID,85.4353,VALID,-0.0169808,VALID,16.0057,VALID,196,VALID,0.960938,
2000-03-02, 03:07:00,VALID,0,VALID,84.4218,VALID,0,VALID,15.9083,VALID,184,VALID,1.12633,
2000-03-02, 03:08:00,VALID,0,VALID,83.786,VALID,-0.0679233,VALID,16.0087,VALID,176,VALID,1.19032,
2000-03-02, 03:09:00,VALID,0,VALID,83.5508,VALID,-0.0339617,VALID,16.1124,VALID,176,VALID,1.21953,
2000-03-02, 03:10:00,VALID,0,VALID,82.4432,VALID,-0.0849042,VALID,16.2157,VALID,183,VALID,1.28007,
2000-03-02, 03:11:00,VALID,0,VALID,82.564,VALID,-0.0169808,VALID,16.3284,VALID,188,VALID,1.19112,
2000-03-02, 03:12:00,VALID,0,VALID,82.4661,VALID,0,VALID,16.322,VALID,198,VALID,1.13346,
2000-03-02, 03:13:00,VALID,0,VALID,83.6716,VALID,0,VALID,16.2249,VALID,208,VALID,0.728125,
2000-03-02, 03:14:00,VALID,0,VALID,84.9343,VALID,-0.0169808,VALID,16.0478,VALID,219,VALID,0.819129,
2000-03-02, 03:15:00,VALID,0,VALID,85.2776,VALID,-0.0169808,VALID,15.851,VALID,208,VALID,0.993331,
2000-03-02, 03:16:00,VALID,0,VALID,84.7423,VALID,0,VALID,15.7441,VALID,204,VALID,1.20508,
2000-03-02, 03:17:00,VALID,0,VALID,83.9653,VALID,-0.0339617,VALID,15.7828,VALID,190,VALID,1.39355,
2000-03-02, 03:18:00,VALID,0,VALID,82.5577,VALID,-0.0169808,VALID,15.9349,VALID,188,VALID,1.45502,
2000-03-02, 03:19:00,VALID,0,VALID,81.0559,VALID,-0.0339617,VALID,16.0569,VALID,191,VALID,1.66311,
2000-03-02, 03:20:00,VALID,0,VALID,79.0951,VALID,0.0169808,VALID,16.2027,VALID,200,VALID,1.68381,
2000-03-02, 03:21:00,VALID,0,VALID,78.3499,VALID,-0.0169808,VALID,16.3381,VALID,202,VALID,1.51465,
2000-03-02, 03:22:00,VALID,0,VALID,77.3212,VALID,-0.0169808,VALID,16.4353,VALID,198,VALID,1.49787,
2000-03-02, 03:23:00,VALID,0,VALID,76.4171,VALID,0,VALID,16.5318,VALID,187,VALID,1.39405,
2000-03-02, 03:24:00,VALID,0,VALID,76.1907,VALID,-0.0339617,VALID,16.5705,VALID,185,VALID,1.34549,
2000-03-02, 03:25:00,VALID,0,VALID,75.691,VALID,-0.0509425,VALID,16.6157,VALID,191,VALID,1.56973,
2000-03-02, 03:26:00,VALID,0,VALID,74.8199,VALID,0,VALID,16.6415,VALID,195,VALID,1.83404,
2000-03-02, 03:27:00,VALID,0,VALID,74.7894,VALID,0.0169808,VALID,16.6544,VALID,197,VALID,1.60518,
2000-03-02, 03:28:00,VALID,0,VALID,73.7798,VALID,0,VALID,16.6738,VALID,192,VALID,1.84288,
2000-03-02, 03:29:00,VALID,0,VALID,71.8533,VALID,0,VALID,16.7805,VALID,194,VALID,1.9709,
2000-03-02, 03:30:00,VALID,0,VALID,71.0547,VALID,-0.0339617,VALID,16.9376,VALID,191,VALID,1.86364,
2000-03-02, 03:31:00,VALID,0,VALID,70.5982,VALID,-0.0169808,VALID,17.0868,VALID,194,VALID,1.82031,
2000-03-02, 03:32:00,VALID,0,VALID,70.0234,VALID,0,VALID,17.1643,VALID,197,VALID,1.85308,
2000-03-02, 03:33:00,VALID,0,VALID,70.0667,VALID,-0.0169808,VALID,17.2125,VALID,195,VALID,1.59414,
2000-03-02, 03:34:00,VALID,0,VALID,69.3279,VALID,-0.0339617,VALID,17.232,VALID,190,VALID,1.84138,
2000-03-02, 03:35:00,VALID,0,VALID,70.3019,VALID,-0.0169808,VALID,17.3031,VALID,189,VALID,1.62462,
2000-03-02, 03:36:00,VALID,0,VALID,70.5563,VALID,-0.0169808,VALID,17.2775,VALID,193,VALID,1.80165,
2000-03-02, 03:37:00,VALID,0,VALID,69.4792,VALID,-0.0339617,VALID,17.2546,VALID,206,VALID,1.69746,
2000-03-02, 03:38:00,VALID,0,VALID,69.7119,VALID,0,VALID,17.2934,VALID,194,VALID,1.48509,
2000-03-02, 03:39:00,VALID,0,VALID,69.4728,VALID,-0.0339617,VALID,17.3061,VALID,191,VALID,1.51239,
2000-03-02, 03:40:00,VALID,0,VALID,69.6992,VALID,0,VALID,17.3024,VALID,192,VALID,1.6582,
2000-03-02, 03:41:00,VALID,0,VALID,70.2943,VALID,-0.0169808,VALID,17.2865,VALID,214,VALID,1.31855,
2000-03-02, 03:42:00,VALID,0,VALID,70.1264,VALID,-0.0339617,VALID,17.2092,VALID,215,VALID,1.62334,
2000-03-02, 03:43:00,VALID,0,VALID,69.188,VALID,-0.0169808,VALID,17.1509,VALID,206,VALID,1.33727,
2000-03-02, 03:44:00,VALID,0,VALID,69.7526,VALID,-0.0339617,VALID,17.1802,VALID,197,VALID,1.4375,
2000-03-02, 03:45:00,VALID,0,VALID,68.9604,VALID,-0.0679233,VALID,17.2032,VALID,192,VALID,1.8418,
2000-03-02, 03:46:00,VALID,0,VALID,67.9647,VALID,-0.0339617,VALID,17.3097,VALID,195,VALID,2.05729,
2000-03-02, 03:47:00,VALID,0,VALID,67.4179,VALID,0,VALID,17.503,VALID,190,VALID,1.98228,
2000-03-02, 03:48:00,VALID,0,VALID,67.1992,VALID,-0.0509425,VALID,17.6253,VALID,192,VALID,1.67318,
2000-03-02, 03:49:00,VALID,0,VALID,67.1725,VALID,0.0169808,VALID,17.6871,VALID,193,VALID,1.81074,
2000-03-02, 03:50:00,VALID,0,VALID,67.8503,VALID,-0.0169808,VALID,17.6802,VALID,197,VALID,1.65152,
2000-03-02, 03:51:00,VALID,0,VALID,68.8663,VALID,0,VALID,17.6449,VALID,199,VALID,1.76925,
2000-03-02, 03:52:00,VALID,0,VALID,70.3859,VALID,0,VALID,17.6193,VALID,199,VALID,1.68859,
2000-03-02, 03:53:00,VALID,0,VALID,71.4286,VALID,0,VALID,17.5443,VALID,193,VALID,1.53223,
2000-03-02, 03:54:00,VALID,0,VALID,72.2742,VALID,-0.0169808,VALID,17.4613,VALID,189,VALID,1.55634,
2000-03-02, 03:55:00,VALID,0,VALID,72.9431,VALID,0,VALID,17.3573,VALID,187,VALID,1.63853,
2000-03-02, 03:56:00,VALID,0,VALID,73.6844,VALID,-0.0169808,VALID,17.2605,VALID,184,VALID,1.53841,
2000-03-02, 03:57:00,VALID,0,VALID,74.1587,VALID,0,VALID,17.1666,VALID,181,VALID,1.55371,
2000-03-02, 03:58:00,VALID,0,VALID,74.722,VALID,-0.0169808,VALID,17.0988,VALID,182,VALID,1.49976,
2000-03-02, 03:59:00,VALID,0,VALID,75.0107,VALID,0,VALID,17.0338,VALID,179,VALID,1.57374,
2000-03-02, 04:00:00,VALID,0,VALID,75.6109,VALID,-0.0339617,VALID,16.9955,VALID,174,VALID,1.23481,
2000-03-02, 04:01:00,VALID,0,VALID,75.3845,VALID,0,VALID,16.934,VALID,180,VALID,1.47598,
2000-03-02, 04:02:00,VALID,0,VALID,75.9059,VALID,0,VALID,16.886,VALID,173,VALID,1.33357,
2000-03-02, 04:03:00,VALID,0,VALID,74.7068,VALID,-0.0169808,VALID,16.838,VALID,175,VALID,1.44798,
2000-03-02, 04:04:00,VALID,0,VALID,74.441,VALID,0,VALID,16.9114,VALID,180,VALID,1.31293,
2000-03-02, 04:05:00,VALID,0,VALID,73.9845,VALID,-0.0169808,VALID,17.0089,VALID,186,VALID,1.71973,